Date,TemperatureHighF,TemperatureAvgF,TemperatureLowF,DewpointHighF,DewpointAvgF,DewpointLowF,HumidityHigh,HumidityAvg,HumidityLow,PressureMaxIn,PressureMinIn,WindSpeedMaxMPH,WindSpeedAvgMPH,GustSpeedMaxMPH,PrecipitationSumIn
2013-1-1,35,26,19,25,16,12,76,65,48,0.00,40.00,15,8,29,0.00
2013-1-2,36,26,15,15,12,6,68,56,38,0.00,40.00,11,6,17,0.00
2013-1-3,36,25,12,12,8,4,72,50,35,0.00,40.00,17,10,28,0.00
2013-1-4,42,31,22,16,11,7,61,44,31,0.00,40.00,13,7,22,0.00
2013-1-5,41,28,19,19,14,10,71,57,39,0.00,40.00,13,4,22,0.00
2013-1-6,42,32,18,16,14,11,74,48,33,0.00,40.00,14,6,24,0.00
2013-1-7,44,34,24,22,19,14,71,55,39,0.00,40.00,8,4,13,0.00
2013-1-8,49,40,30,24,20,12,61,45,24,0.00,40.00,20,6,39,0.00
2013-1-9,58,45,28,26,23,18,66,42,25,0.00,40.00,13,5,20,0.00
2013-1-10,51,33,20,29,22,12,83,65,36,0.00,40.00,20,8,29,0.00
2013-1-11,20,12,9,14,9,6,92,87,66,0.00,40.00,14,6,22,0.00
2013-1-12,17,10,3,9,6,1,91,83,64,0.00,40.00,13,4,19,0.00
2013-1-13,19,12,6,8,4,2,82,71,59,0.00,40.00,13,7,20,0.00
2013-1-14,19,14,8,8,3,0,72,62,52,0.00,40.00,16,10,26,0.00
2013-1-15,30,25,19,18,15,8,78,66,60,0.00,40.00,19,11,31,0.00
2013-1-16,41,32,27,23,18,15,62,56,43,0.00,40.00,16,8,25,0.00
2013-1-17,42,34,25,22,18,15,66,52,42,0.00,40.00,18,10,28,0.00
2013-1-18,54,41,33,23,19,17,53,41,25,0.00,40.00,16,7,24,0.00
2013-1-19,40,34,25,27,22,16,87,61,40,0.00,40.00,12,4,16,0.00
2013-1-20,38,23,16,21,16,10,84,73,47,0.00,40.00,21,8,32,0.00
2013-1-21,31,20,12,18,13,8,84,74,58,0.00,40.00,13,4,18,0.00
2013-1-22,48,31,17,23,17,13,85,58,32,0.00,40.00,10,5,16,0.00
2013-1-23,30,23,17,19,15,12,80,72,60,0.00,40.00,13,6,18,0.00
2013-1-24,55,38,20,28,21,16,83,54,32,0.00,40.00,17,4,36,0.00
2013-1-25,52,36,22,30,24,18,85,64,40,0.00,40.00,9,3,14,0.00
2013-1-26,60,44,34,30,27,26,72,54,31,0.00,40.00,9,3,14,0.00
2013-1-27,36,32,30,34,29,25,98,88,71,0.00,40.00,6,1,12,0.00
2013-1-28,40,31,21,28,21,10,94,69,29,0.00,40.00,14,4,27,0.00
2013-1-29,30,21,6,20,12,1,79,65,49,0.00,40.00,18,8,26,0.00
2013-1-30,32,24,10,30,19,3,98,82,63,0.00,40.00,14,6,24,0.00
2013-1-31,30,15,3,24,11,1,93,85,74,0.00,40.00,15,6,21,0.00